sat.trackr.live / text

‹ back to catalog

STARLINK-37388

NORAD 68860 · 2026-094X

PAYLOAD ACTIVE UNKNOWN

§ Identity

Operator
Country
US
Launch date
2026-04-26
Launch site
AFWTR
Launch vehicle
Mass (kg)
RCS (m²)

Purposes: comms

External: N2YO · Heavens-Above · Gunter

§ Orbital elements

Epoch: 2026-05-25T00:49:46.550784Z

Period
92.95 min
Inclination
97.2846°
Eccentricity
0.0000812
Mean motion
15.49200432 rev/d
Perigee alt
418.5 km
Apogee alt
419.6 km
Semi-major
6,797.2 km
B*
6.9456e-4
RAAN
159.7046°
Arg perigee
104.9378°
Mean anomaly
255.1963°
Rev number
449

§ Raw data

STARLINK-373881 68860U 26094X   26145.03456656  .00037881  00000+0  69456-3 0  99912 68860  97.2846 159.7046 0000812 104.9378 255.1963 15.49200432  4499

JSON: /api/v1/satellites/68860 · /tle

For live sub-satellite position, see the globe view (requires WebGL).

§ Visibility from observer

Set your observer location to see the next 7 days of passes ≥ 10°. The values pass through the URL so the page stays shareable.

No JS? Fill the form by hand. The geolocation button needs JavaScript.